Location: *
(50.6089°N, 2.2719°E)
Time: 19:59:57
(UTC+00:00)

STARLINK-65 - Pass Details

Date: 18 October 2019
Orbit: 548 x 551 km, 53.0° (Epoch: 11 November)

Event Time Altitude Azimuth Distance (km) Brightness Sun altitude
Rises 18:54:41 0° 271° (W) 2,717 8.7 -19.9°
Reaches altitude 10° 18:56:57 10° 275° (W) 1,824 7.5 -20.3°
Maximum altitude 19:01:03 62° 356° (N) 625 3.8 -20.9°
Enters shadow 19:01:44 52° 42° (NE) 687 3.8 -21.0°
